{"data":{"norad_id":28526,"epoch":"2026-09-18T23:06:38.835072Z","epoch_age_seconds":150915,"freshness":"FRESH","line1":"1 28526U 05003A   26261.96294948 -.00000254  00000+0  00000+0 0  9999","line2":"2 28526   6.6793  69.2768 0003108  98.4798 139.3564  1.00273027 54092","mean_motion":1.00273027,"eccentricity":0.0003108,"inclination_deg":6.6793,"raan_deg":69.2768,"arg_perigee_deg":98.4798,"mean_anomaly_deg":139.3564,"bstar":0,"rev_number":5409,"period_min":1436.0791162712,"perigee_km":35773.142096618,"apogee_km":35799.35147758,"semimajor_km":42164.383787099,"source":"CELESTRAK","updated_at":"2026-09-20T09:00:35.637228Z"}}